#timestamp,LO_Frequency,Hit,StdDev 
1697238015.1,286047009.8,N
1697238035.9,286047013.5,N
1697238055.7,286047013.5,N
1697238075.5,286047013.6,N
1697238095.4,286047012.0,N
1697238115.2,286047013.8,N
1697238135.1,286047010.1,N
1697238136.0,286047010.1,N
1697238155.8,286047009.7,N
1697238175.6,286047007.1,N
1697238195.5,286047018.6,Y
1697238215.3,286047000.3,P
1697238235.2,286046993.4,N
1697238255.9,286046991.0,N
1697238275.7,286046989.7,N
1697238295.6,286046982.9,N
1697238315.4,286046982.2,N
1697238335.2,286046983.4,N
1697238355.1,286046984.3,N
1697238356.0,286046984.3,N
1697238375.8,286046983.5,N
1697238395.7,286046983.3,N
1697238415.5,286046979.6,N
1697238435.3,286046977.4,N
1697238455.2,286046978.4,N
1697238475.0,286046975.2,Y
1697238475.9,286046975.2,P
1697238495.7,286046983.8,N
1697238515.6,286046982.6,P
1697238535.4,286046982.8,Y
1697238555.3,286047006.0,P
1697238575.1,286047007.2,N
1697238595.8,286047004.2,N
1697238615.7,286047001.8,N
1697238635.5,286047003.6,N
1697238655.3,286047010.5,N
1697238675.2,286047009.6,N
1697238695.0,286047011.1,N
1697238695.9,286047011.1,N
1697238715.8,286047011.3,N
1697238735.6,286047010.7,N
1697238755.4,286047008.5,N
1697238775.3,286047005.4,N
1697238795.1,286047010.8,N
1697238815.9,286047007.0,N
1697238835.7,286047004.6,N
1697238855.5,286047005.9,N
1697238875.4,286047004.1,N
1697238895.2,286046996.8,N
1697238915.0,286046996.5,N
1697238915.9,286046996.5,N
1697238935.8,286046995.3,N
1697238955.6,286046999.3,N
1697238975.5,286046999.5,N
1697238995.3,286046995.2,N
1697239015.1,286046990.6,N
1697239035.9,286046991.4,N
1697239055.7,286046992.7,N
1697239075.5,286046994.1,N
1697239095.4,286046995.9,N
1697239115.2,286046998.3,N
1697239135.1,286046999.3,N
1697239136.0,286046999.3,N
1697239155.8,286047000.4,N
1697239175.6,286046998.5,N
1697239195.5,286047000.2,N
1697239215.3,286047003.8,N
1697239235.1,286047005.1,N
1697239255.9,286047004.9,N
1697239275.7,286047006.0,N
1697239295.6,286047003.7,N
1697239315.4,286047004.1,N
1697239335.2,286047005.8,N
1697239355.1,286047003.2,N
1697239356.0,286047003.2,N
1697239375.8,286047009.1,N
1697239395.6,286047009.5,N
1697239415.5,286047010.8,N
1697239435.3,286047009.6,N
1697239455.2,286047008.4,N
1697239475.9,286047006.8,N
1697239495.7,286047011.2,N
1697239515.6,286047006.9,N
1697239535.4,286047003.7,N
1697239555.2,286047001.3,N
1697239575.1,286047002.8,N
1697239576.0,286047002.8,N
1697239595.8,286046998.5,N
1697239615.7,286046997.0,N
1697239635.5,286046993.6,N
1697239655.3,286046991.5,N
1697239675.2,286046985.8,N
1697239695.0,286046987.2,N
1697239695.9,286046987.2,N
1697239715.7,286046983.7,N
1697239735.6,286046982.6,N
1697239755.4,286046980.7,N
1697239775.3,286046978.2,N
1697239795.1,286046978.4,N
1697239796.0,286046978.4,N
1697239815.8,286046978.4,N
1697239835.7,286046974.3,N
1697239855.5,286046974.7,N
1697239875.3,286046977.2,N
1697239895.2,286046974.4,N
1697239915.0,286046972.7,N
1697239915.9,286046972.7,N
1697239935.8,286046975.4,N
1697239955.6,286046971.0,N
1697239975.4,286046972.1,N
1697239995.3,286046975.2,N
1697240015.1,286046973.4,N
1697240035.8,286046973.2,N
1697240055.7,286046971.6,N
1697240075.5,286046973.6,N
1697240095.4,286046973.5,N
1697240115.2,286046973.2,Y
1697240135.1,286046992.4,P
1697240136.0,286046992.4,N
1697240155.8,286046993.1,N
1697240175.6,286046987.5,N
1697240195.5,286046985.4,Y
1697240215.3,286046995.6,P
1697240235.2,286046996.1,N
1697240255.0,286046995.7,N
1697240255.9,286046995.7,N
1697240275.7,286046996.6,N
1697240295.6,286046999.9,N
1697240315.4,286046998.6,N
1697240335.3,286046997.6,N
1697240355.1,286046997.2,N
1697240375.8,286047001.6,N
1697240395.7,286047002.9,N
1697240415.5,286047002.4,N
1697240435.3,286046999.9,N
1697240455.2,286047002.9,N
1697240475.0,286047007.2,N
1697240475.9,286047007.2,N
1697240495.8,286047006.3,N
1697240515.6,286047013.6,N
1697240535.4,286047016.1,N
1697240555.3,286047016.4,N
1697240575.1,286047017.9,N
1697240595.9,286047023.6,Y
1697240615.7,286047026.6,P
1697240635.5,286047025.7,N
1697240655.4,286047026.5,N
1697240675.2,286047025.2,N
1697240695.0,286047021.8,N
1697240695.9,286047021.8,N
1697240715.8,286047021.1,N
1697240735.6,286047025.4,Y
1697240755.5,286047012.3,P
1697240775.3,286047015.2,P
1697240795.1,286047012.9,P
1697240815.9,286047011.7,Y
1697240835.7,286046994.8,P
1697240855.5,286046993.0,N
1697240875.4,286046993.3,N
1697240895.2,286046998.0,N
1697240915.1,286046993.4,N
1697240916.0,286046993.4,N
1697240935.8,286046996.2,N
1697240955.6,286046998.7,N
1697240975.5,286046995.6,N
1697240995.3,286046995.9,N
1697241015.1,286046997.0,N
1697241035.9,286046996.8,N
1697241055.7,286046999.1,N
1697241075.6,286046994.6,N
1697241095.4,286046993.2,N
1697241115.2,286046989.4,N
1697241135.1,286046989.4,N
1697241136.0,286046989.4,N
1697241155.8,286046991.2,N
1697241175.6,286046991.4,N
1697241195.5,286046989.1,N
1697241215.3,286046985.6,N
1697241235.2,286046987.5,N
1697241255.9,286046983.9,N
1697241275.7,286046985.4,N
1697241295.6,286046986.4,N
1697241315.4,286046982.9,N
1697241335.2,286046977.7,Y
1697241355.1,286046984.1,P
1697241356.0,286046984.1,P
1697241375.8,286046985.6,P
1697241395.7,286046986.3,Y
1697241415.5,286046995.8,P
1697241435.3,286046995.7,N
1697241455.2,286046996.0,N
1697241475.0,286046993.7,N
1697241475.9,286046993.7,N
1697241495.8,286046995.7,N
1697241515.6,286046999.1,N
1697241535.4,286047005.5,N
1697241555.3,286047007.4,N
1697241575.1,286047004.1,N
1697241595.8,286047004.4,N
